CW8826 Weather Reports


Display with metric or nautical units.
time (UTC)temp
F
wind
direction
speed
MPH
gust
MPH
rain 1hr
in
rain 24hr
in
rain mn
in
humidity
%
barometer
mb
20260905120516 73 203 3.0 12.0 0.00 0.00 0.00 20 1017.6
20260905115515 73 158 3.0 11.0 0.00 0.00 0.00 19 1017.6
20260905114516 73 135 5.0 16.0 0.00 0.00 0.00 19 1017.6
20260905113516 74 158 5.0 13.0 0.00 0.00 0.00 19 1017.5
20260905112516 74 135 6.0 13.0 0.00 0.00 0.00 18 1017.6
20260905111516 74 158 8.0 15.0 0.00 0.00 0.00 18 1017.5
20260905110515 74 135 6.0 13.0 0.00 0.00 0.00 19 1017.5
20260905105516 74 158 7.0 18.0 0.00 0.00 0.00 19 1017.3
20260905104515 74 158 8.0 15.0 0.00 0.00 0.00 19 1017.2
20260905103516 74 135 8.0 15.0 0.00 0.00 0.00 19 1017.4
20260905102517 74 158 6.0 15.0 0.00 0.00 0.00 20 1017.4
20260905101516 75 158 7.0 13.0 0.00 0.00 0.00 20 1017.6
20260905100516 75 158 8.0 17.0 0.00 0.00 0.00 21 1017.3
20260905095516 75 180 8.0 17.0 0.00 0.00 0.00 21 1017.1
20260905094516 75 158 6.0 14.0 0.00 0.00 0.00 22 1017.1
20260905093515 75 203 5.0 15.0 0.00 0.00 0.00 23 1017.0
20260905092516 75 158 5.0 10.0 0.00 0.00 0.00 25 1016.9
20260905091515 75 158 5.0 14.0 0.00 0.00 0.00 25 1016.9
20260905090516 75 135 4.0 10.0 0.00 0.00 0.00 26 1016.4
20260905085515 75 203 5.0 9.0 0.00 0.00 0.00 26 1016.4
20260905084515 75 135 5.0 12.0 0.00 0.00 0.00 26 1016.3
20260905083516 76 158 6.0 15.0 0.00 0.00 0.00 26 1016.2
20260905082536 76 135 7.0 13.0 0.00 0.00 0.00 26 1016.4
20260905081515 76 135 7.0 22.0 0.00 0.00 0.00 25 1016.3
20260905080516 76 158 6.0 12.0 0.00 0.00 0.00 25 1016.2
20260905075516 76 158 7.0 14.0 0.00 0.00 0.00 25 1016.1
20260905074515 76 158 6.0 11.0 0.00 0.00 0.00 25 1016.1
20260905073516 77 158 6.0 16.0 0.00 0.00 0.00 25 1015.9
20260905072515 77 135 9.0 20.0 0.00 0.00 0.00 24 1015.7
20260905071516 77 158 7.0 18.0 0.00 0.00 0.00 25 1015.8
20260905070516 77 135 5.0 10.0 0.00 0.00 0.00 25 1015.5
20260905065516 77 135 4.0 11.0 0.00 0.00 0.00 24 1015.3
20260905064515 77 135 6.0 19.0 0.00 0.00 0.00 24 1015.2
20260905063515 78 135 6.0 13.0 0.00 0.00 0.00 24 1015.1
20260905062516 78 135 6.0 17.0 0.00 0.00 0.00 24 1015.0
20260905061516 78 158 5.0 11.0 0.00 0.00 0.00 24 1014.8
20260905060515 78 135 6.0 14.0 0.00 0.00 0.00 24 1014.4
20260905055516 78 135 7.0 16.0 0.00 0.00 0.00 24 1014.3
20260905054516 78 135 7.0 17.0 0.00 0.00 0.00 23 1014.2
20260905053516 78 158 4.0 15.0 0.00 0.00 0.00 23 1014.1
20260905052556 79 225 6.0 18.0 0.00 0.00 0.00 23 1014.1
20260905051516 79 158 7.0 15.0 0.00 0.00 0.00 23 1014.0
20260905050516 79 158 8.0 16.0 0.00 0.00 0.00 22 1013.9
20260905045516 79 158 8.0 16.0 0.00 0.00 0.00 22 1013.8
20260905044517 78 135 8.0 14.0 0.00 0.00 0.00 22 1013.9
20260905043516 77 158 8.0 19.0 0.00 0.00 0.00 23 1013.6
20260905042516 77 135 6.0 13.0 0.00 0.00 0.00 24 1013.2
20260905041516 77 113 6.0 12.0 0.00 0.00 0.00 24 1013.5
20260905040536 78 135 3.0 10.0 0.00 0.00 0.00 24 1013.4
20260905035516 79 225 4.0 10.0 0.00 0.00 0.00 23 1013.4
20260905034516 79 135 6.0 14.0 0.00 0.00 0.00 22 1013.2
20260905033516 78 135 4.0 9.0 0.00 0.00 0.00 24 1012.8
20260905032517 79 135 3.0 8.0 0.00 0.00 0.00 24 1013.1
20260905030536 80 158 4.0 9.0 0.00 0.00 0.00 23 1012.8
20260905025516 80 158 3.0 6.0 0.00 0.00 0.00 23 1012.6
20260905024516 81 135 5.0 14.0 0.00 0.00 0.00 23 1012.4
20260905023516 81 135 6.0 14.0 0.00 0.00 0.00 23 1012.3
20260905022516 80 203 3.0 8.0 0.00 0.00 0.00 23 1011.9
20260905021516 81 203 3.0 7.0 0.00 0.00 0.00 23 1011.8
20260905020516 81 135 2.0 5.0 0.00 0.00 0.00 22 1012.0
20260905015516 81 158 2.0 6.0 0.00 0.00 0.00 22 1012.0
20260905014516 83 0.0 3.0 0.00 0.00 0.00 22 1012.1
20260905013536 83 203 4.0 11.0 0.00 0.00 0.00 21 1012.4
20260905012519 84 203 2.0 6.0 0.00 0.00 0.00 20 1012.4
20260905011516 84 248 6.0 12.0 0.00 0.00 0.00 20 1012.4
20260905010516 85 203 3.0 9.0 0.00 0.00 0.00 19 1012.7
20260905005516 85 248 6.0 12.0 0.00 0.00 0.00 18 1012.6
20260905004516 85 248 3.0 12.0 0.00 0.00 0.00 18 1012.5
20260905003516 85 248 5.0 13.0 0.00 0.00 0.00 18 1012.4
20260905002516 85 225 6.0 18.0 0.00 0.00 0.00 17 1012.4
20260905001516 86 225 7.0 15.0 0.00 0.00 0.00 16 1012.6
20260905000516 86 225 7.0 16.0 0.00 0.00 0.00 16 1012.8
20260904235516 86 225 7.0 16.0 0.00 0.00 0.00 16 1012.9
20260904234516 86 225 5.0 13.0 0.00 0.00 0.00 16 1012.8
20260904233556 86 225 6.0 14.0 0.00 0.00 0.00 15 1013.0
20260904232536 86 225 4.0 10.0 0.00 0.00 0.00 16 1012.8
20260904231516 86 203 4.0 11.0 0.00 0.00 0.00 17 1013.1
20260904230517 86 203 8.0 19.0 0.00 0.00 0.00 16 1013.2
20260904225516 85 225 7.0 17.0 0.00 0.00 0.00 16 1013.2
20260904224516 85 203 7.0 17.0 0.00 0.00 0.00 15 1013.3
20260904223516 85 203 8.0 20.0 0.00 0.00 0.00 16 1013.4
20260904222536 85 180 8.0 19.0 0.00 0.00 0.00 15 1013.5
20260904221516 85 225 7.0 15.0 0.00 0.00 0.00 16 1013.6
20260904220516 85 203 7.0 16.0 0.00 0.00 0.00 15 1013.8
20260904215516 84 225 9.0 17.0 0.00 0.00 0.00 15 1013.9
20260904214516 84 225 7.0 17.0 0.00 0.00 0.00 15 1014.0
20260904213516 84 225 7.0 16.0 0.00 0.00 0.00 15 1014.1
20260904212516 84 203 7.0 16.0 0.00 0.00 0.00 16 1014.1
20260904211516 84 203 7.0 14.0 0.00 0.00 0.00 16 1014.1
20260904210516 83 225 7.0 17.0 0.00 0.00 0.00 17 1014.4
20260904205516 83 248 10.0 26.0 0.00 0.00 0.00 17 1014.4
20260904204516 83 225 6.0 13.0 0.00 0.00 0.00 18 1014.2
20260904203516 82 158 10.0 27.0 0.00 0.00 0.00 17 1014.6
20260904202536 82 225 8.0 20.0 0.00 0.00 0.00 18 1014.8
20260904201516 82 225 6.0 17.0 0.00 0.00 0.00 19 1014.8
20260904200516 82 180 7.0 17.0 0.00 0.00 0.00 19 1014.8
20260904195516 81 225 7.0 17.0 0.00 0.00 0.00 18 1014.8
20260904194516 81 225 7.0 17.0 0.00 0.00 0.00 20 1014.9
20260904193516 80 135 7.0 18.0 0.00 0.00 0.00 19 1015.0
20260904192516 80 158 6.0 14.0 0.00 0.00 0.00 21 1015.0
20260904191516 80 203 7.0 16.0 0.00 0.00 0.00 22 1015.3
20260904190516 79 135 7.0 17.0 0.00 0.00 0.00 21 1014.9
20260904185536 79 225 8.0 18.0 0.00 0.00 0.00 22 1015.2
20260904184516 79 225 7.0 16.0 0.00 0.00 0.00 23 1015.2
20260904183516 78 203 8.0 18.0 0.00 0.00 0.00 23 1015.4
20260904182516 78 225 7.0 21.0 0.00 0.00 0.00 23 1015.6
20260904181516 78 225 8.0 20.0 0.00 0.00 0.00 24 1015.7
20260904180516 78 203 7.0 15.0 0.00 0.00 0.00 23 1015.8
20260904175516 77 225 8.0 18.0 0.00 0.00 0.00 24 1015.9
20260904174516 77 158 7.0 17.0 0.00 0.00 0.00 24 1016.0
20260904173516 77 135 10.0 19.0 0.00 0.00 0.00 24 1016.0
20260904172536 76 225 8.0 17.0 0.00 0.00 0.00 24 1016.1
20260904171516 76 203 8.0 16.0 0.00 0.00 0.00 24 1016.0
20260904170516 76 225 8.0 18.0 0.00 0.00 0.00 24 1016.0
20260904165516 76 203 7.0 14.0 0.00 0.00 0.00 24 1016.0
20260904164516 76 225 8.0 16.0 0.00 0.00 0.00 25 1016.0
20260904163516 76 158 5.0 10.0 0.00 0.00 0.00 24 1016.1
20260904162516 75 203 8.0 21.0 0.00 0.00 0.00 24 1015.9
20260904161516 75 225 7.0 12.0 0.00 0.00 0.00 25 1015.8
20260904160516 75 203 8.0 17.0 0.00 0.00 0.00 27 1016.1
20260904155516 74 203 8.0 17.0 0.00 0.00 0.00 26 1016.1
20260904154522 74 158 7.0 14.0 0.00 0.00 0.00 27 1016.0
20260904153516 74 203 5.0 13.0 0.00 0.00 0.00 29 1016.0
20260904152516 74 158 6.0 12.0 0.00 0.00 0.00 28 1016.0
20260904151536 73 225 5.0 18.0 0.00 0.00 0.00 29 1015.6
20260904150516 73 158 3.0 8.0 0.00 0.00 0.00 29 1015.6
20260904145516 72 158 6.0 16.0 0.00 0.00 0.00 30 1015.5
20260904144516 72 158 8.0 17.0 0.00 0.00 0.00 30 1015.5
20260904143516 72 135 7.0 21.0 0.00 0.00 0.00 29 1015.5
20260904142536 72 225 5.0 12.0 0.00 0.00 0.00 29 1015.3
20260904141516 72 158 9.0 18.0 0.00 0.00 0.00 29 1015.3
20260904140516 72 135 7.0 18.0 0.00 0.00 0.00 29 1015.5
20260904135521 72 158 8.0 17.0 0.00 0.00 0.00 26 1015.6
20260904134516 72 135 10.0 19.0 0.00 0.00 0.00 25 1015.5
20260904133516 72 158 8.0 16.0 0.00 0.00 0.00 24 1015.3
20260904132516 72 158 8.0 16.0 0.00 0.00 0.00 23 1015.2
20260904131516 71 203 7.0 14.0 0.00 0.00 0.00 23 1015.2
20260904130516 71 158 6.0 17.0 0.00 0.00 0.00 23 1014.9
20260904125516 72 203 6.0 15.0 0.00 0.00 0.00 22 1014.6
20260904124516 72 158 9.0 18.0 0.00 0.00 0.00 22 1014.9
20260904123516 72 158 8.0 19.0 0.00 0.00 0.00 21 1015.2
20260904122516 72 158 8.0 17.0 0.00 0.00 0.00 21 1015.0
20260904121516 72 158 9.0 20.0 0.00 0.00 0.00 20 1014.8